Weather reports worldwide

Advertisment
Riga, Latvia (26422): temperature & dewpoint: 18.05.2017 22:00:00 - 24.05.2017 22:00:00 (EEST)Riga, Latvia (26422): wind speed: 18.05.2017 22:00:00 - 24.05.2017 22:00:00 (EEST)Riga, Latvia (26422): wind direction: 18.05.2017 22:00:00 - 24.05.2017 22:00:00 (EEST)Riga, Latvia (26422): reduced air pressure: 18.05.2017 22:00:00 - 24.05.2017 22:00:00 (EEST)Riga, Latvia (26422): visibility: 18.05.2017 22:00:00 - 24.05.2017 22:00:00 (EEST)Riga, Latvia (26422): precipitation: 18.05.2017 22:00:00 - 24.05.2017 22:00:00 (EEST)
Date & Time tt [°C] td [°C] ff [km/h] ff [kn] dd ppp [hPa] vv [km] rr [mm]
24.05.2017 22:00:00 - - - - - - - -
24.05.2017 21:00:00 11,9 8,3 11 6 NW 1013,1 10 -
24.05.2017 20:00:00 - - - - - - - -
24.05.2017 19:00:00 - - - - - - - -
24.05.2017 18:00:00 12,9 8,5 7 4 NNW 1012,6 10 -
24.05.2017 17:00:00 - - - - - - - -
24.05.2017 16:00:00 - - - - - - - -
24.05.2017 15:00:00 13,0 8,0 11 6 W 1012,4 10 -
24.05.2017 14:00:00 - - - - - - - -
24.05.2017 13:00:00 - - - - - - - -
24.05.2017 12:00:00 14,7 6,9 7 4 NW 1012,3 10 -
24.05.2017 11:00:00 - - - - - - - -
24.05.2017 10:00:00 - - - - - - - -
24.05.2017 09:00:00 11,8 8,9 7 4 W 1012,5 10 -
24.05.2017 08:00:00 - - - - - - - -
24.05.2017 07:00:00 - - - - - - - -
24.05.2017 06:00:00 9,4 8,9 7 4 W 1012,3 10 -
24.05.2017 05:00:00 - - - - - - - -
24.05.2017 04:00:00 - - - - - - - -
24.05.2017 03:00:00 9,4 8,7 0 0 N 1012,6 10 -
24.05.2017 02:00:00 - - - - - - - -
24.05.2017 01:00:00 - - - - - - - -
24.05.2017 00:00:00 9,5 8,4 4 2 WNW 1013,1 10 -
23.05.2017 23:00:00 - - - - - - - -
23.05.2017 22:00:00 - - - - - - - -
23.05.2017 21:00:00 12,0 8,8 4 2 NNW 1012,8 10 -
23.05.2017 20:00:00 - - - - - - - -
23.05.2017 19:00:00 - - - - - - - -
23.05.2017 18:00:00 11,1 9,5 4 2 ENE 1013,0 10 -
23.05.2017 17:00:00 - - - - - - - -
23.05.2017 16:00:00 - - - - - - - -
23.05.2017 15:00:00 11,6 8,9 11 6 N 1013,4 4,0 -
23.05.2017 14:00:00 - - - - - - - -
23.05.2017 13:00:00 - - - - - - - -
23.05.2017 12:00:00 17,5 7,5 4 2 NW 1013,0 20 -
23.05.2017 11:00:00 - - - - - - - -
23.05.2017 10:00:00 - - - - - - - -
23.05.2017 09:00:00 14,6 8,0 7 4 SSW 1013,9 20 -
23.05.2017 08:00:00 - - - - - - - -
23.05.2017 07:00:00 - - - - - - - -
23.05.2017 06:00:00 9,2 6,0 7 4 SSW 1014,0 10 0,0
23.05.2017 05:00:00 - - - - - - - -
23.05.2017 04:00:00 - - - - - - - -
23.05.2017 03:00:00 10,3 6,4 7 4 SW 1014,6 10 -
23.05.2017 02:00:00 - - - - - - - -
23.05.2017 01:00:00 - - - - - - - -
23.05.2017 00:00:00 11,5 8,5 7 4 SW 1015,4 10 -
22.05.2017 23:00:00 - - - - - - - -
22.05.2017 22:00:00 - - - - - - - -
22.05.2017 21:00:00 13,2 7,8 7 4 NNW 1015,7 20 -
22.05.2017 20:00:00 - - - - - - - -
22.05.2017 19:00:00 - - - - - - - -
22.05.2017 18:00:00 15,3 7,7 11 6 WNW 1015,9 20 -
22.05.2017 17:00:00 - - - - - - - -
22.05.2017 16:00:00 - - - - - - - -
22.05.2017 15:00:00 17,7 7,9 11 6 NNW 1016,0 20 -
22.05.2017 14:00:00 - - - - - - - -
22.05.2017 13:00:00 - - - - - - - -
22.05.2017 12:00:00 18,6 5,7 7 4 WSW 1016,6 20 -
22.05.2017 11:00:00 - - - - - - - -
22.05.2017 10:00:00 - - - - - - - -
22.05.2017 09:00:00 14,7 7,4 11 6 WNW 1016,9 20 -
22.05.2017 08:00:00 - - - - - - - -
22.05.2017 07:00:00 - - - - - - - -
22.05.2017 06:00:00 12,9 7,9 4 2 W 1016,9 10 -
22.05.2017 05:00:00 - - - - - - - -
22.05.2017 04:00:00 - - - - - - - -
22.05.2017 03:00:00 12,1 9,8 11 6 WNW 1017,7 10 -
22.05.2017 02:00:00 - - - - - - - -
22.05.2017 01:00:00 - - - - - - - -
22.05.2017 00:00:00 13,7 10,1 7 4 WNW 1017,8 10 -
21.05.2017 23:00:00 - - - - - - - -
21.05.2017 22:00:00 - - - - - - - -
21.05.2017 21:00:00 15,8 9,4 7 4 WNW 1017,2 20 -
21.05.2017 20:00:00 - - - - - - - -
21.05.2017 19:00:00 - - - - - - - -
21.05.2017 18:00:00 18,7 9,1 11 6 NNW 1017,5 20 -
21.05.2017 17:00:00 - - - - - - - -
21.05.2017 16:00:00 - - - - - - - -
21.05.2017 15:00:00 19,9 8,5 14 8 NW 1017,8 20 -
21.05.2017 14:00:00 - - - - - - - -
21.05.2017 13:00:00 - - - - - - - -
21.05.2017 12:00:00 21,7 8,5 7 4 NNE 1017,5 20 -
21.05.2017 11:00:00 - - - - - - - -
21.05.2017 10:00:00 - - - - - - - -
21.05.2017 09:00:00 18,3 7,9 11 6 ESE 1016,8 20 -
21.05.2017 08:00:00 - - - - - - - -
21.05.2017 07:00:00 - - - - - - - -
21.05.2017 06:00:00 15,4 8,3 7 4 ENE 1016,2 10 -
21.05.2017 05:00:00 - - - - - - - -
21.05.2017 04:00:00 - - - - - - - -
21.05.2017 03:00:00 14,3 11,6 7 4 NW 1015,8 10 -
21.05.2017 02:00:00 - - - - - - - -
21.05.2017 01:00:00 - - - - - - - -
21.05.2017 00:00:00 16,2 11,5 11 6 WNW 1015,3 10 -
20.05.2017 23:00:00 - - - - - - - -
20.05.2017 22:00:00 - - - - - - - -
20.05.2017 21:00:00 18,7 9,1 11 6 NW 1015,3 20 -
20.05.2017 20:00:00 - - - - - - - -
20.05.2017 19:00:00 - - - - - - - -
20.05.2017 18:00:00 23,4 6,1 11 6 NNW 1015,0 20 -
20.05.2017 17:00:00 - - - - - - - -
20.05.2017 16:00:00 - - - - - - - -
20.05.2017 15:00:00 23,0 9,7 14 8 NW 1015,3 20 -
20.05.2017 14:00:00 - - - - - - - -
20.05.2017 13:00:00 - - - - - - - -
20.05.2017 12:00:00 24,1 13,0 7 4 NW 1015,3 20 -
20.05.2017 11:00:00 - - - - - - - -
20.05.2017 10:00:00 - - - - - - - -
20.05.2017 09:00:00 19,1 13,2 0 0 N 1015,4 10 -
20.05.2017 08:00:00 - - - - - - - -
20.05.2017 07:00:00 - - - - - - - -
20.05.2017 06:00:00 15,3 12,0 4 2 SSW 1015,8 10 -
20.05.2017 05:00:00 - - - - - - - -
20.05.2017 04:00:00 - - - - - - - -
20.05.2017 03:00:00 17,6 12,0 4 2 S 1015,7 10 -
20.05.2017 02:00:00 - - - - - - - -
20.05.2017 01:00:00 - - - - - - - -
20.05.2017 00:00:00 19,1 12,3 7 4 S 1015,7 10 -
19.05.2017 23:00:00 - - - - - - - -
19.05.2017 22:00:00 - - - - - - - -
19.05.2017 21:00:00 23,4 11,0 7 4 S 1015,4 20 -
19.05.2017 20:00:00 - - - - - - - -
19.05.2017 19:00:00 - - - - - - - -
19.05.2017 18:00:00 25,9 10,4 14 8 WSW 1015,8 20 -
19.05.2017 17:00:00 - - - - - - - -
19.05.2017 16:00:00 - - - - - - - -
19.05.2017 15:00:00 25,4 9,6 11 6 SSE 1016,8 20 -
19.05.2017 14:00:00 - - - - - - - -
19.05.2017 13:00:00 - - - - - - - -
19.05.2017 12:00:00 24,1 10,3 11 6 SSW 1017,4 20 -
19.05.2017 11:00:00 - - - - - - - -
19.05.2017 10:00:00 - - - - - - - -
19.05.2017 09:00:00 18,3 12,4 4 2 SE 1017,7 20 -
19.05.2017 08:00:00 - - - - - - - -
19.05.2017 07:00:00 - - - - - - - -
19.05.2017 06:00:00 14,2 11,3 7 4 SE 1017,9 10 -
19.05.2017 05:00:00 - - - - - - - -
19.05.2017 04:00:00 - - - - - - - -
19.05.2017 03:00:00 14,6 12,0 7 4 SE 1018,2 10 -
19.05.2017 02:00:00 - - - - - - - -
19.05.2017 01:00:00 - - - - - - - -
19.05.2017 00:00:00 16,1 12,6 4 2 ESE 1018,5 10 -
18.05.2017 23:00:00 - - - - - - - -
18.05.2017 22:00:00 - - - - - - - -

tt = temperature
td = dewpoint
ff = wind speed
dd = wind direction
ppp = reduced air pressure
vv = visibility
rr = precipitation

Next stations